Home > Weather > Abilene > Past weeks

Flag for USA Past Weather in Abilene, Texas, USA — Yesterday and Last 2 Weeks

Now
84 °F

Passing clouds.


Feels Like: 86 °F
Forecast: 70 / 87 °F
Wind: 13 mph from Southeast

Location: Abilene Regional Airport

Current Time: Aug 29, 2016 at 2:55:15 PM

Latest Report: Aug 29, 2016 at 1:52 PM


Visibility: 10 mi

Pressure: 30.03 "Hg (28.30 "Hg at 524m altitude)

Humidity: 55%

Dew Point: 66 °F

Location of AbileneLocation

Past Weather in Abilene — Graph

°F

Abilene Temperature Yesterday

Maximum temperature yesterday: 86 °F (at 12:52 PM)
Minimum temperature yesterday: 71 °F (at 4:52 AM)
Average temperature yesterday: 76 °F

High & Low Weather Summary for the Past Weeks

 TemperatureHumidityPressure
High93 °F (Aug 23, 3:52 PM)100% (Aug 18, 6:52 AM)30.15 "Hg (Aug 18, 6:52 AM)
Low63 °F (Aug 16, 6:52 AM)29% (Aug 15, 2:52 PM)29.79 "Hg (Aug 19, 6:52 PM)
Average78 °F72%29.98 "Hg
* Reported Aug 14 1:52 PM — Aug 29 1:52 PM, Abilene, Weather by CustomWeather, © 2016

Note: Actual official high and low records may vary slightly from our data, if they occured in-between our weather recording intervals... More about our weather records

Advertising

Abilene Weather History for the Previous 24 Hours

Scroll right to see more
 ConditionsComfort  
Time TempWeatherWind HumidityBarometerVisibility
1:52 PM
Mon, Aug 29
84 °FPassing clouds.13 mph55%30.03 "Hg10 mi
12:52 PM83 °FScattered clouds.13 mph59%30.05 "Hg10 mi
11:52 AM82 °FBroken clouds.9 mph63%30.06 "Hg10 mi
10:52 AM78 °FPartly sunny.9 mph71%30.07 "Hg10 mi
9:52 AM73 °FMore clouds than sun.No wind90%30.07 "Hg10 mi
8:52 AM70 °FScattered clouds.No wind93%30.06 "Hg9 mi
7:52 AM68 °FClear.3 mph96%30.05 "Hg10 mi
6:52 AM69 °FClear.No wind93%30.03 "Hg10 mi
5:52 AM69 °FClear.3 mph93%30.02 "Hg10 mi
4:52 AM69 °FClear.No wind93%30.01 "Hg10 mi
3:52 AM69 °FClear.5 mph93%30.01 "Hg10 mi
2:52 AM70 °FClear.5 mph93%30.00 "Hg10 mi
1:52 AM71 °FClear.6 mph90%29.99 "Hg10 mi
12:52 AM73 °FClear.6 mph84%29.99 "Hg10 mi
11:52 PM
Sun, Aug 28
74 °FClear.8 mph82%30.02 "Hg10 mi
10:52 PM75 °FClear.8 mph82%30.02 "Hg10 mi
9:52 PM77 °FClear.7 mph79%30.00 "Hg10 mi
8:52 PM79 °FSunny.6 mph74%29.98 "Hg10 mi
7:52 PM81 °FSunny.5 mph69%29.96 "Hg10 mi
6:52 PM82 °FSunny.6 mph65%29.94 "Hg10 mi
5:52 PM83 °FSunny.9 mph70%29.92 "Hg10 mi
4:52 PM78 °FSunny.No wind76%29.95 "Hg10 mi
3:52 PM75 °FPassing clouds.7 mph94%29.97 "Hg10 mi
2:52 PM72 °FLight rain. Broken clouds.7 mph100%30.01 "Hg9 mi
Weather by CustomWeather, © 2016

See weather overviewHow to use our weather pages